Home > Weather > Kfar Saba > Past weeks

Flag for Israel Past Weather in Kfar Saba, Israel — Yesterday and Last 2 Weeks

Now
84 °F

Scattered clouds.


Feels Like: 90 °F
Forecast: 74 / 88 °F
Wind: 8 mph from Southwest

Location: Dov Airport

Current Time: Jul 28, 2016 at 9:46:31 AM

Latest Report: Jul 28, 2016 at 8:50 AM


Visibility: N/A

Pressure: 29.74 "Hg

Humidity: 66%

Dew Point: 72 °F

Location of Kfar SabaLocation

Past Weather in Kfar Saba — Graph

°F

Kfar Saba Temperature Yesterday

Maximum temperature yesterday: 88 °F (at 11:50 AM)
Minimum temperature yesterday: 77 °F (at 5:50 AM)
Average temperature yesterday: 84 °F

High & Low Weather Summary for the Past Weeks

 TemperatureHumidityPressure
High88 °F (Jul 13, 1:50 PM)89% (Jul 14, 4:50 AM)29.89 "Hg (Jul 14, 4:50 AM)
Low75 °F (Jul 16, 6:00 AM)49% (Jul 19, 3:50 PM)29.65 "Hg (Jul 19, 5:50 AM)
Average83 °F68%29.75 "Hg
* Reported Jul 13 7:50 AM — Jul 28 7:50 AM, Kfar Saba, Weather by CustomWeather, © 2016

Note: Actual official high and low records may vary slightly from our data, if they occured in-between our weather recording intervals... More about our weather records

Advertising

Kfar Saba Weather History for the Previous 24 Hours

Scroll right to see more
 ConditionsComfort  
Time TempWeatherWind HumidityBarometerVisibility
7:50 AM
Thu, Jul 28
82 °FScattered clouds.5 mph70%29.74 "HgN/A
6:50 AM79 °FPassing clouds.5 mph79%29.74 "HgN/A
5:50 AM79 °FPassing clouds.3 mph79%29.74 "HgN/A
4:50 AM81 °FPassing clouds.5 mph70%29.71 "HgN/A
10:50 PM
Wed, Jul 27
82 °FPassing clouds.2 mph74%29.74 "HgN/A
9:50 PM82 °FPassing clouds.3 mph74%29.74 "HgN/A
8:50 PM82 °FPassing clouds.3 mph74%29.74 "HgN/A
7:50 PM82 °FScattered clouds.6 mph74%29.74 "HgN/A
6:50 PM84 °FPassing clouds.6 mph70%29.74 "HgN/A
5:50 PM86 °FScattered clouds.8 mph66%29.71 "HgN/A
4:50 PM86 °FScattered clouds.10 mph66%29.74 "HgN/A
3:50 PM86 °FPassing clouds.13 mph66%29.74 "HgN/A
2:50 PM86 °FSunny.12 mph66%29.74 "Hg10 mi
1:50 PM88 °FSunny.13 mph62%29.74 "Hg10 mi
12:50 PM86 °FSunny.13 mph66%29.74 "Hg10 mi
11:50 AM88 °FSunny.12 mph62%29.74 "Hg10 mi
10:50 AM86 °FPassing clouds.10 mph62%29.74 "HgN/A
9:50 AM84 °FPassing clouds.10 mph66%29.74 "HgN/A
Weather by CustomWeather, © 2016

See weather overviewHow to use our weather pages